Weather in Iberdus

Russia / Ryazan Oblast     54°54′21″N   41°02′48″E
В апреле 2022 года жителям России запретили посещать сайт meteo.paraplan.net по решению Генеральной прокуратуры. Аудитория сайта уменьшилась в 10 раз. Владельцы сайта не видят смысла в поддержке погодного сервера в таких условиях. Сайт будет закрыт в октябре.
temp.,
°C
wind,
m/s
gust,
m/s
humid.,
%
clouds,
%
prec.,
mm/h
press.,
hPa
HPBL,
m
3 october, mon
mon300:00+14se51595100 1.1 1003613
03:00+15ese41294100 1.2 1001413
06:00+15se61587100 0.3 1000767
09:00+15se71578100 0.4 999827
12:00+16se81870100 0.5 9991466
15:00+14s81579100 1.3 10021566
18:00+10s7137569 0.1 10061228
21:00+10s6128058 0.1 10091080
4 october, tue
tue400:00+11sse61277100 0.0 10101018
03:00+10sse613835 0.0 1011692
06:00+9sse515825 0.0 1012728
09:00+12sse614695 0.0 10131084
12:00+15s6155796 0.0 10131951
15:00+13s61369100 0.4 10141795
18:00+12se7147330 0.3 1013892
21:00+12s51282100 1.2 1013900
5 october, wed
wed500:00+10s5128899 0.8 1013711
03:00+9s41090100 0.8 1014733
06:00+9s31090100 0.0 1013711
09:00+9ssw51086100 0.6 10131226
12:00+8ssw4990100 0.3 1013684
15:00+9sw588196 0.8 10141039
18:00+7wsw378875 0.1 1015413
21:00+7wsw3787100 0.3 1015547
6 october, thu
thu600:00+6w3592100 0.4 1015911
03:00+5w3895100 1.0 1016416
06:00+4wsw389634 0.1 1016368
09:00+6w358816 0.1 1017324
12:00+9wsw3576100 0.1 1016932
15:00+7ssw2592100 0.1 1016331
18:00+7s3697100 0.0 1016263
21:00+8sw3898100 0.6 1015365
7 october, fri
fri700:00+8sw3109751 0.0 1014370
03:00+8wsw31098100 0.0 1014365
06:00+10wnw51091100 0.0 1016649
09:00+10wnw4885100 0.1 1018891
12:00+11w587571 0.0 10191020
15:00+11w5976100 0.1 10191080
18:00+8w411870 0.0 1021554
21:00+7w412930 0.0 1022467